Regional Weather Roundup
Issued by NWS Mobile, AL

Home | Current Version | Previous Version | Text Only | Print | Product List | Glossary On
Versions: 1 2 3 4 5 6 7 8 9 10 11 12 13 14 15 16 17 18 19 20 21 22 23 24 25 26 27
000
ASUS44 KMOB 161012
RWRMOB
REGIONAL WEATHER ROUNDUP
NATIONAL WEATHER SERVICE MOBILE AL
400 AM CST TUE JAN 16 2018

NOTE: "FAIR" INDICATES FEW OR NO CLOUDS BELOW 12,000 FEET WITH NO
      SIGNIFICANT WEATHER AND/OR OBSTRUCTIONS TO VISIBILITY.

  * THESE STATIONS ARE PART OF THE UNIVERSITY OF SOUTH ALABAMA
    MESONET AND ARE NOT UNDER NWS OR FAA QUALITY CONTROL.

ALZ061>064-161100-
COASTAL ALABAMA

CITY           SKY/WX    TMP DP  RH WIND       PRES   REMARKS
MOBILE REG APT FAIR      43  34  70 SE6       30.38S
BROOKLEY FIELD FAIR      37  36  96 CALM      30.40S FOG
USA CAMPUS*    NOT AVBL
DOG RIVER*     NOT AVBL


CITY           SKY/WX    TMP DP  RH WIND       PRES   REMARKS
GULF SHORES    CLOUDY    38  37  95 CALM      30.39S

$$

ALZ051>060-161100-
INTERIOR SOUTHWEST AND SOUTH CENTRAL ALABAMA

CITY           SKY/WX    TMP DP  RH WIND       PRES   REMARKS
GREENVILLE     FAIR      30  25  81 CALM      30.39R
EVERGREEN      FAIR      29  27  92 CALM      30.40S
ATMORE*          N/A    N/A N/A N/A SE3         N/A
ANDALUSIA/OPP  FAIR      32  28  85 CALM      30.40S
ANDALUSIA*       N/A     34  30  86 SE2       30.39R
FLORALA APT    FAIR      33  28  81 CALM      30.43S
FLORALA*         N/A     30  30 100 CALM      31.20F

$$

FLZ001>006-161100-
WESTERN FLORIDA PANHANDLE

CITY           SKY/WX    TMP DP  RH WIND       PRES   REMARKS
PENSACOLA      FAIR      45  35  68 E6        30.39S
NAS PENSACOLA  FAIR      38  34  85 N3        30.39R
MILTON         NOT AVBL
WHTNG S FIELD  FAIR      38  32  79 CALM      30.40S


CITY           SKY/WX    TMP DP  RH WIND       PRES   REMARKS
JAY*             N/A     34  30  86 E2        30.40S
DUKE FIELD     FAIR      42  29  59 SE3       30.40R
CRESTVIEW      FAIR      28  26  92 CALM      30.42S
VALPARAISO     CLEAR     35  30  82 NE3       30.40S
DESTIN         FAIR      41  32  70 E5        30.40F

$$

MSZ076-079-161100-
INTERIOR SOUTHEAST MISSISSIPPI

CITY           SKY/WX    TMP DP  RH WIND       PRES   REMARKS
LEAKESVILLE*     N/A     34  34 100 CALM      30.39R
AGRICOLA*        N/A     37  37 100 CALM      30.36S

$$

MARINE OBSERVATIONS

STATION/POSITION TIME  TEMP    WIND        PRES    WAVE
                       AIR SEA DIR/SP/G            HT/PER
                 (UTC) (F)     (DEG/KT/KT) (MB)    (FT/S)
PASCAGOULA       0948   46     150/  1/  2 1028.4F
PETIT BOIS ISLND 0948   49     100/  5/  6 1029.5R
GRAND BAY        0830   42      30/  2     1029.0S
KATRINA CUT      0930   41      70/  7     1029.1S
CEDAR POINT      0930   47      50/  6     1028.8R
E DAUPHIN ISLAND 1000   48      70/  7/  8 1028.4S
MIDDLE BAY LIGHT 0930   45      40/  4     1028.8S
USCG MOBILE BAY  0948   40 51  260/  3/  3 1029.2S
STATE DOCKS      0948   41 50              1028.9F
MEAHER PARK      0930   40     100/  1     1028.8S
WEEKS BAY        0845   35                 1029.0R
FORT MORGAN      0948   50     100/  8/  9   N/A
12 S ORANGE BCH  NOT AVBL
64 S DAUPHIN ISL 1000   62     110/ 10/ 14 1028.6
67 S FORT MORGAN 0930   59                 1028.1S

$$

SELECTED LOCATIONS ACROSS THE REGION

CITY           SKY/WX    TMP DP  RH WIND       PRES   REMARKS
NEW ORLEANS    FAIR      41  41 100 CALM      30.37R
GULFPORT       FAIR      36  35  96 NW5       30.36F
PASCAGOULA AP  FAIR      35  33  92 CALM      30.38S
PASCAGOULA*      N/A     43  39  87 CALM        N/A
HATTIESBURG    FAIR      30  30 100 CALM      30.41R
LAUREL         FAIR      29  28  96 S3        30.38S
MERIDIAN       FAIR      32  28  85 N8        30.41R WCI  25
JACKSON        CLOUDY    37  32  82 N10       30.42R
MONTGOMERY     FAIR      31  26  82 CALM      30.40F
TROY           FAIR      29  26  89 CALM      30.41R
ASHFORD*         N/A     34  30  86 SE2       30.39R
DOTHAN         FAIR      35  29  78 SE7         N/A  WCI  29
PANAMA CITY    FAIR      32  29  88 CALM      30.41S

$$





USA.gov is the U.S. government's official web portal to all federal, state and local government web resources and services.